Time,TemperatureF,DewpointF,PressureIn,WindDirection,WindDirectionDegrees,WindSpeedMPH,WindSpeedGustMPH,Humidity,HourlyPrecipIn,Conditions,Clouds,dailyrainin,SoftwareType,DateUTC
2013-04-22 00:01:00,42.6,33.4,30.66,SE,124,7.0,8.0,70,0.00,,,0.00,meteohub,2013-04-22 04:01:00,
2013-04-22 00:02:00,42.6,33.4,30.66,ESE,110,5.0,8.0,70,0.00,,,0.00,meteohub,2013-04-22 04:02:00,
2013-04-22 00:07:00,42.6,33.4,30.66,ESE,119,5.0,9.0,70,0.00,,,0.00,meteohub,2013-04-22 04:07:00,
2013-04-22 00:12:00,42.6,33.8,30.66,SE,129,3.0,9.0,71,0.00,,,0.00,meteohub,2013-04-22 04:12:00,
2013-04-22 00:17:00,42.6,33.8,30.66,SE,145,4.0,9.0,71,0.00,,,0.00,meteohub,2013-04-22 04:17:00,
2013-04-22 00:22:00,42.6,33.8,30.66,SE,125,2.0,8.0,71,0.00,,,0.00,meteohub,2013-04-22 04:22:00,
2013-04-22 00:27:00,42.4,33.6,30.66,SE,125,1.0,7.0,71,0.00,,,0.00,meteohub,2013-04-22 04:27:00,
2013-04-22 00:32:00,42.4,34.0,30.66,SE,125,1.0,5.0,72,0.00,,,0.00,meteohub,2013-04-22 04:32:00,
2013-04-22 00:37:00,42.3,33.8,30.66,SE,139,1.0,4.0,72,0.00,,,0.00,meteohub,2013-04-22 04:37:00,
2013-04-22 00:42:00,42.3,33.8,30.66,SE,135,1.0,4.0,72,0.00,,,0.00,meteohub,2013-04-22 04:42:00,
2013-04-22 00:47:00,42.3,33.8,30.66,SSE,147,0.0,4.0,72,0.00,,,0.00,meteohub,2013-04-22 04:47:00,
2013-04-22 00:52:00,42.3,33.8,30.66,SSE,147,0.0,3.0,72,0.00,,,0.00,meteohub,2013-04-22 04:52:00,
2013-04-22 00:57:00,42.1,34.0,30.66,SSE,147,1.0,3.0,73,0.00,,,0.00,meteohub,2013-04-22 04:57:00,
2013-04-22 01:02:00,41.7,33.6,30.66,SE,142,2.0,3.0,73,0.00,,,0.00,meteohub,2013-04-22 05:02:00,
2013-04-22 01:07:00,41.7,33.6,30.66,SSE,164,3.0,4.0,73,0.00,,,0.00,meteohub,2013-04-22 05:07:00,
2013-04-22 01:12:00,41.9,33.6,30.66,ESE,119,2.0,5.0,72,0.00,,,0.00,meteohub,2013-04-22 05:12:00,
2013-04-22 01:17:00,41.9,33.8,30.66,SE,144,1.0,5.0,73,0.00,,,0.00,meteohub,2013-04-22 05:17:00,
2013-04-22 01:22:00,41.9,33.6,30.66,ESE,106,0.0,5.0,72,0.00,,,0.00,meteohub,2013-04-22 05:22:00,
2013-04-22 01:27:00,41.5,33.3,30.66,ESE,122,1.0,5.0,72,0.00,,,0.00,meteohub,2013-04-22 05:27:00,
2013-04-22 01:32:00,40.8,32.5,30.66,East,95,1.0,5.0,72,0.00,,,0.00,meteohub,2013-04-22 05:32:00,
2013-04-22 01:37:00,39.2,31.6,30.66,East,83,2.0,4.0,74,0.00,,,0.00,meteohub,2013-04-22 05:37:00,
2013-04-22 01:42:00,37.9,31.1,30.66,East,79,0.0,4.0,76,0.00,,,0.00,meteohub,2013-04-22 05:42:00,
2013-04-22 01:47:00,37.2,30.9,30.66,East,79,1.0,3.0,78,0.00,,,0.00,meteohub,2013-04-22 05:47:00,
2013-04-22 01:52:00,36.9,30.9,30.66,East,79,1.0,2.0,79,0.00,,,0.00,meteohub,2013-04-22 05:52:00,
2013-04-22 01:57:00,36.3,30.7,30.66,East,79,1.0,2.0,80,0.00,,,0.00,meteohub,2013-04-22 05:57:00,
2013-04-22 02:02:00,36.0,30.7,30.66,East,79,2.0,2.0,81,0.00,,,0.00,meteohub,2013-04-22 06:02:00,
2013-04-22 02:07:00,35.6,30.7,30.66,East,79,1.0,2.0,82,0.00,,,0.00,meteohub,2013-04-22 06:07:00,
2013-04-22 02:12:00,35.4,30.6,30.66,East,79,1.0,2.0,82,0.00,,,0.00,meteohub,2013-04-22 06:12:00,
2013-04-22 02:17:00,35.1,30.4,30.66,East,79,1.0,2.0,83,0.00,,,0.00,meteohub,2013-04-22 06:17:00,
2013-04-22 02:22:00,35.1,30.4,30.66,East,79,1.0,2.0,83,0.00,,,0.00,meteohub,2013-04-22 06:22:00,
2013-04-22 02:27:00,34.9,30.6,30.66,East,79,0.0,2.0,84,0.00,,,0.00,meteohub,2013-04-22 06:27:00,
2013-04-22 02:32:00,34.5,30.2,30.66,East,79,1.0,2.0,84,0.00,,,0.00,meteohub,2013-04-22 06:32:00,
2013-04-22 02:37:00,34.3,30.4,30.66,East,79,1.0,2.0,85,0.00,,,0.00,meteohub,2013-04-22 06:37:00,
2013-04-22 02:42:00,34.3,30.4,30.66,East,79,0.0,2.0,85,0.00,,,0.00,meteohub,2013-04-22 06:42:00,
2013-04-22 02:47:00,34.3,30.4,30.65,East,79,0.0,2.0,85,0.00,,,0.00,meteohub,2013-04-22 06:47:00,
2013-04-22 02:52:00,34.3,30.4,30.65,East,79,1.0,2.0,85,0.00,,,0.00,meteohub,2013-04-22 06:52:00,
2013-04-22 02:57:00,34.3,30.6,30.65,East,79,0.0,2.0,86,0.00,,,0.00,meteohub,2013-04-22 06:57:00,
2013-04-22 03:02:00,34.3,30.6,30.65,East,79,1.0,2.0,86,0.00,,,0.00,meteohub,2013-04-22 07:02:00,
2013-04-22 03:07:00,34.3,30.6,30.65,East,79,1.0,2.0,86,0.00,,,0.00,meteohub,2013-04-22 07:07:00,
2013-04-22 03:12:00,34.3,30.9,30.65,East,79,1.0,2.0,87,0.00,,,0.00,meteohub,2013-04-22 07:12:00,
2013-04-22 03:17:00,34.3,30.9,30.65,East,79,1.0,2.0,87,0.00,,,0.00,meteohub,2013-04-22 07:17:00,
2013-04-22 03:22:00,34.3,30.9,30.65,East,79,0.0,2.0,87,0.00,,,0.00,meteohub,2013-04-22 07:22:00,
2013-04-22 03:27:00,34.5,31.3,30.65,NNE,12,0.0,2.0,88,0.00,,,0.00,meteohub,2013-04-22 07:27:00,
2013-04-22 03:32:00,34.9,31.6,30.65,NNE,12,0.0,3.0,88,0.00,,,0.00,meteohub,2013-04-22 07:32:00,
2013-04-22 03:37:00,35.2,32.0,30.65,East,82,0.0,3.0,88,0.00,,,0.00,meteohub,2013-04-22 07:37:00,
2013-04-22 03:42:00,35.4,32.2,30.64,East,82,0.0,2.0,88,0.00,,,0.00,meteohub,2013-04-22 07:42:00,
2013-04-22 03:47:00,35.6,32.4,30.64,East,82,1.0,2.0,88,0.00,,,0.00,meteohub,2013-04-22 07:47:00,
2013-04-22 03:52:00,36.0,32.5,30.64,East,82,0.0,1.0,87,0.00,,,0.00,meteohub,2013-04-22 07:52:00,
2013-04-22 03:57:00,36.0,32.5,30.64,East,82,0.0,1.0,87,0.00,,,0.00,meteohub,2013-04-22 07:57:00,
2013-04-22 04:02:00,36.1,32.7,30.64,East,82,0.0,1.0,87,0.00,,,0.00,meteohub,2013-04-22 08:02:00,
2013-04-22 04:07:00,36.1,32.7,30.65,East,82,0.0,1.0,87,0.00,,,0.00,meteohub,2013-04-22 08:07:00,
2013-04-22 04:12:00,36.3,32.9,30.65,East,82,0.0,1.0,87,0.00,,,0.00,meteohub,2013-04-22 08:12:00,
2013-04-22 04:17:00,36.3,32.9,30.65,East,83,0.0,0.0,87,0.00,,,0.00,meteohub,2013-04-22 08:17:00,
2013-04-22 04:22:00,36.5,32.7,30.65,East,83,0.0,1.0,86,0.00,,,0.00,meteohub,2013-04-22 08:22:00,
2013-04-22 04:27:00,36.7,32.9,30.65,East,82,0.0,2.0,86,0.00,,,0.00,meteohub,2013-04-22 08:27:00,
2013-04-22 04:32:00,36.7,32.9,30.65,East,82,0.0,2.0,86,0.00,,,0.00,meteohub,2013-04-22 08:32:00,
2013-04-22 04:37:00,36.5,32.7,30.64,East,81,0.0,2.0,86,0.00,,,0.00,meteohub,2013-04-22 08:37:00,
2013-04-22 04:42:00,36.3,32.5,30.64,East,82,0.0,1.0,86,0.00,,,0.00,meteohub,2013-04-22 08:42:00,
2013-04-22 04:47:00,36.1,32.7,30.64,ENE,63,1.0,3.0,87,0.00,,,0.00,meteohub,2013-04-22 08:47:00,
2013-04-22 04:52:00,36.1,32.7,30.64,ESE,113,1.0,3.0,87,0.00,,,0.00,meteohub,2013-04-22 08:52:00,
2013-04-22 04:57:00,36.3,32.5,30.64,East,80,0.0,3.0,86,0.00,,,0.00,meteohub,2013-04-22 08:57:00,
2013-04-22 05:02:00,36.9,33.1,30.64,ENE,74,2.0,2.0,86,0.00,,,0.00,meteohub,2013-04-22 09:02:00,
2013-04-22 05:07:00,37.0,32.9,30.64,ENE,74,1.0,3.0,85,0.00,,,0.00,meteohub,2013-04-22 09:07:00,
2013-04-22 05:12:00,37.2,33.1,30.65,East,98,2.0,3.0,85,0.00,,,0.00,meteohub,2013-04-22 09:12:00,
2013-04-22 05:17:00,38.5,33.8,30.65,ENE,68,1.0,7.0,83,0.00,,,0.00,meteohub,2013-04-22 09:17:00,
2013-04-22 05:22:00,39.0,33.6,30.65,ENE,75,2.0,7.0,81,0.00,,,0.00,meteohub,2013-04-22 09:22:00,
2013-04-22 05:27:00,39.6,34.0,30.66,East,99,3.0,7.0,80,0.00,,,0.00,meteohub,2013-04-22 09:27:00,
2013-04-22 05:32:00,39.7,33.8,30.66,NE,46,3.0,6.0,79,0.00,,,0.00,meteohub,2013-04-22 09:32:00,
2013-04-22 05:37:00,39.9,34.0,30.66,ENE,77,2.0,6.0,79,0.00,,,0.00,meteohub,2013-04-22 09:37:00,
2013-04-22 05:42:00,40.3,34.0,30.66,ENE,58,4.0,5.0,78,0.00,,,0.00,meteohub,2013-04-22 09:42:00,
2013-04-22 05:47:00,40.3,34.0,30.66,East,83,3.0,6.0,78,0.00,,,0.00,meteohub,2013-04-22 09:47:00,
2013-04-22 05:52:00,40.5,34.2,30.66,NE,48,5.0,7.0,78,0.00,,,0.00,meteohub,2013-04-22 09:52:00,
2013-04-22 05:57:00,40.6,34.3,30.66,ESE,115,3.0,9.0,78,0.00,,,0.00,meteohub,2013-04-22 09:57:00,
2013-04-22 06:02:00,40.6,34.0,30.66,NE,53,6.0,9.0,77,0.00,,,0.00,meteohub,2013-04-22 10:02:00,
2013-04-22 06:07:00,40.6,34.0,30.66,East,83,1.0,8.0,77,0.00,,,0.00,meteohub,2013-04-22 10:07:00,
2013-04-22 06:12:00,40.8,34.2,30.66,SSE,150,0.0,8.0,77,0.00,,,0.00,meteohub,2013-04-22 10:12:00,
2013-04-22 06:17:00,40.8,34.2,30.66,NE,40,0.0,8.0,77,0.00,,,0.00,meteohub,2013-04-22 10:17:00,
2013-04-22 06:22:00,40.8,33.8,30.66,NE,39,4.0,8.0,76,0.00,,,0.00,meteohub,2013-04-22 10:22:00,
2013-04-22 06:27:00,40.8,33.8,30.66,SE,131,3.0,7.0,76,0.00,,,0.00,meteohub,2013-04-22 10:27:00,
2013-04-22 06:32:00,40.8,33.8,30.66,ESE,102,3.0,7.0,76,0.00,,,0.00,meteohub,2013-04-22 10:32:00,
2013-04-22 06:37:00,41.2,34.2,30.66,North,4,3.0,7.0,76,0.00,,,0.00,meteohub,2013-04-22 10:37:00,
2013-04-22 06:42:00,41.4,34.0,30.66,ENE,77,1.0,10.0,75,0.00,,,0.00,meteohub,2013-04-22 10:42:00,
2013-04-22 06:47:00,41.4,34.0,30.67,SE,140,2.0,10.0,75,0.00,,,0.00,meteohub,2013-04-22 10:47:00,
2013-04-22 06:52:00,41.5,33.8,30.67,East,81,3.0,9.0,74,0.00,,,0.00,meteohub,2013-04-22 10:52:00,
2013-04-22 06:57:00,41.7,34.0,30.67,ENE,74,5.0,9.0,74,0.00,,,0.00,meteohub,2013-04-22 10:57:00,
2013-04-22 07:02:00,41.9,34.2,30.67,SE,140,2.0,13.0,74,0.00,,,0.00,meteohub,2013-04-22 11:02:00,
2013-04-22 07:07:00,42.1,34.3,30.66,East,96,6.0,13.0,74,0.00,,,0.00,meteohub,2013-04-22 11:07:00,
2013-04-22 07:12:00,42.4,34.3,30.67,ENE,58,1.0,13.0,73,0.00,,,0.00,meteohub,2013-04-22 11:12:00,
2013-04-22 07:17:00,42.8,34.7,30.67,ENE,61,3.0,9.0,73,0.00,,,0.00,meteohub,2013-04-22 11:17:00,
2013-04-22 07:22:00,43.2,34.7,30.67,East,81,7.0,11.0,72,0.00,,,0.00,meteohub,2013-04-22 11:22:00,
2013-04-22 07:27:00,43.3,34.9,30.67,ENE,58,4.0,11.0,72,0.00,,,0.00,meteohub,2013-04-22 11:27:00,
2013-04-22 07:32:00,43.5,34.7,30.66,East,85,10.0,11.0,71,0.00,,,0.00,meteohub,2013-04-22 11:32:00,
2013-04-22 07:37:00,43.7,34.9,30.66,East,95,1.0,11.0,71,0.00,,,0.00,meteohub,2013-04-22 11:37:00,
2013-04-22 07:42:00,44.1,35.2,30.66,SE,135,4.0,11.0,71,0.00,,,0.00,meteohub,2013-04-22 11:42:00,
2013-04-22 07:47:00,44.2,35.1,30.66,SE,140,4.0,11.0,70,0.00,,,0.00,meteohub,2013-04-22 11:47:00,
2013-04-22 07:52:00,44.4,35.6,30.66,ESE,123,1.0,11.0,71,0.00,,,0.00,meteohub,2013-04-22 11:52:00,
2013-04-22 07:57:00,44.8,35.6,30.66,ENE,69,3.0,12.0,70,0.00,,,0.00,meteohub,2013-04-22 11:57:00,
2013-04-22 08:02:00,44.8,35.6,30.66,East,93,3.0,12.0,70,0.00,,,0.00,meteohub,2013-04-22 12:02:00,
2013-04-22 08:07:00,45.1,36.0,30.66,ESE,112,2.0,11.0,70,0.00,,,0.00,meteohub,2013-04-22 12:07:00,
2013-04-22 08:12:00,45.1,35.6,30.66,ESE,102,5.0,11.0,69,0.00,,,0.00,meteohub,2013-04-22 12:12:00,
2013-04-22 08:17:00,45.0,35.8,30.66,ENE,57,2.0,13.0,70,0.00,,,0.00,meteohub,2013-04-22 12:17:00,
2013-04-22 08:22:00,45.1,36.0,30.66,SSE,165,6.0,13.0,70,0.00,,,0.00,meteohub,2013-04-22 12:22:00,
2013-04-22 08:27:00,45.3,36.1,30.66,ENE,75,5.0,15.0,70,0.00,,,0.00,meteohub,2013-04-22 12:27:00,
2013-04-22 08:32:00,45.3,35.8,30.66,SE,125,8.0,15.0,69,0.00,,,0.00,meteohub,2013-04-22 12:32:00,
2013-04-22 08:37:00,45.7,36.1,30.67,East,84,9.0,15.0,69,0.00,,,0.00,meteohub,2013-04-22 12:37:00,
2013-04-22 08:42:00,45.5,36.3,30.68,East,100,7.0,16.0,70,0.00,,,0.00,meteohub,2013-04-22 12:42:00,
2013-04-22 08:47:00,45.5,36.0,30.68,SE,129,9.0,16.0,69,0.00,,,0.00,meteohub,2013-04-22 12:47:00,
2013-04-22 08:52:00,45.9,36.0,30.69,SE,125,10.0,16.0,68,0.00,,,0.00,meteohub,2013-04-22 12:52:00,
2013-04-22 08:57:00,46.0,36.1,30.69,ESE,106,7.0,14.0,68,0.00,,,0.00,meteohub,2013-04-22 12:57:00,
2013-04-22 09:02:00,46.4,36.0,30.69,South,172,9.0,14.0,67,0.00,,,0.00,meteohub,2013-04-22 13:02:00,
2013-04-22 09:07:00,46.2,36.0,30.69,ESE,119,4.0,16.0,67,0.00,,,0.00,meteohub,2013-04-22 13:07:00,
2013-04-22 09:12:00,46.6,36.1,30.69,ESE,112,9.0,17.0,67,0.00,,,0.00,meteohub,2013-04-22 13:12:00,
2013-04-22 09:17:00,46.6,35.8,30.68,ESE,116,3.0,17.0,66,0.00,,,0.00,meteohub,2013-04-22 13:17:00,
2013-04-22 09:22:00,46.8,35.2,30.67,SE,126,6.0,15.0,64,0.00,,,0.00,meteohub,2013-04-22 13:22:00,
2013-04-22 09:27:00,46.6,35.4,30.67,SE,127,10.0,15.0,65,0.00,,,0.00,meteohub,2013-04-22 13:27:00,
2013-04-22 09:32:00,46.8,36.0,30.67,ESE,112,7.0,16.0,66,0.00,,,0.00,meteohub,2013-04-22 13:32:00,
2013-04-22 09:37:00,46.6,35.8,30.67,SE,135,7.0,20.0,66,0.00,,,0.00,meteohub,2013-04-22 13:37:00,
2013-04-22 09:42:00,46.8,35.6,30.67,ENE,71,13.0,20.0,65,0.00,,,0.00,meteohub,2013-04-22 13:42:00,
2013-04-22 09:47:00,46.6,36.1,30.67,ESE,115,7.0,20.0,67,0.00,,,0.00,meteohub,2013-04-22 13:47:00,
2013-04-22 09:52:00,46.4,35.2,30.67,SE,131,9.0,17.0,65,0.00,,,0.00,meteohub,2013-04-22 13:52:00,
2013-04-22 09:57:00,46.4,36.0,30.67,ESE,123,6.0,18.0,67,0.00,,,0.00,meteohub,2013-04-22 13:57:00,
2013-04-22 10:02:00,46.6,35.8,30.67,SSE,153,16.0,18.0,66,0.00,,,0.00,meteohub,2013-04-22 14:02:00,
2013-04-22 10:07:00,46.8,35.6,30.68,SE,131,8.0,20.0,65,0.00,,,0.00,meteohub,2013-04-22 14:07:00,
2013-04-22 10:12:00,47.1,36.0,30.68,ESE,103,5.0,22.0,65,0.00,,,0.00,meteohub,2013-04-22 14:12:00,
2013-04-22 10:17:00,47.1,36.3,30.69,ESE,116,8.0,22.0,66,0.00,,,0.00,meteohub,2013-04-22 14:17:00,
2013-04-22 10:22:00,47.3,35.4,30.69,SSE,152,7.0,20.0,63,0.00,,,0.00,meteohub,2013-04-22 14:22:00,
2013-04-22 10:27:00,47.5,36.0,30.68,SE,137,8.0,22.0,64,0.00,,,0.00,meteohub,2013-04-22 14:27:00,
2013-04-22 10:32:00,47.1,36.0,30.68,SSE,153,5.0,22.0,65,0.00,,,0.00,meteohub,2013-04-22 14:32:00,
2013-04-22 10:37:00,46.9,35.8,30.68,East,83,8.0,22.0,65,0.00,,,0.00,meteohub,2013-04-22 14:37:00,
2013-04-22 10:42:00,46.9,36.1,30.68,East,91,11.0,19.0,66,0.00,,,0.00,meteohub,2013-04-22 14:42:00,
2013-04-22 10:47:00,46.8,36.7,30.68,SE,135,8.0,19.0,68,0.00,,,0.00,meteohub,2013-04-22 14:47:00,
2013-04-22 10:52:00,46.8,36.3,30.68,ESE,123,5.0,23.0,67,0.00,,,0.00,meteohub,2013-04-22 14:52:00,
2013-04-22 10:57:00,46.8,36.0,30.68,ESE,121,12.0,23.0,66,0.00,,,0.00,meteohub,2013-04-22 14:57:00,
2013-04-22 11:02:00,46.9,36.5,30.67,ESE,122,14.0,23.0,67,0.00,,,0.00,meteohub,2013-04-22 15:02:00,
2013-04-22 11:07:00,46.9,36.1,30.68,SSE,151,9.0,22.0,66,0.00,,,0.00,meteohub,2013-04-22 15:07:00,
2013-04-22 11:12:00,47.1,36.3,30.67,ESE,118,10.0,23.0,66,0.00,,,0.00,meteohub,2013-04-22 15:12:00,
2013-04-22 11:17:00,47.3,36.1,30.68,ESE,115,11.0,23.0,65,0.00,,,0.00,meteohub,2013-04-22 15:17:00,
2013-04-22 11:22:00,47.5,37.0,30.68,SSE,153,14.0,23.0,67,0.00,,,0.00,meteohub,2013-04-22 15:22:00,
2013-04-22 11:27:00,47.5,37.0,30.68,ENE,60,9.0,23.0,67,0.00,,,0.00,meteohub,2013-04-22 15:27:00,
2013-04-22 11:32:00,47.7,36.1,30.68,ESE,111,7.0,21.0,64,0.00,,,0.00,meteohub,2013-04-22 15:32:00,
2013-04-22 11:37:00,47.7,36.5,30.68,SE,137,15.0,22.0,65,0.00,,,0.00,meteohub,2013-04-22 15:37:00,
2013-04-22 11:42:00,47.7,34.9,30.67,SE,140,11.0,23.0,61,0.00,,,0.00,meteohub,2013-04-22 15:42:00,
2013-04-22 11:47:00,47.3,35.4,30.66,ENE,67,9.0,23.0,63,0.00,,,0.00,meteohub,2013-04-22 15:47:00,
2013-04-22 11:52:00,47.3,36.5,30.67,ESE,120,12.0,23.0,66,0.00,,,0.00,meteohub,2013-04-22 15:52:00,
2013-04-22 11:57:00,47.5,36.3,30.68,SE,145,10.0,19.0,65,0.00,,,0.00,meteohub,2013-04-22 15:57:00,
2013-04-22 12:02:00,47.7,35.6,30.67,SSE,151,14.0,19.0,63,0.00,,,0.00,meteohub,2013-04-22 16:02:00,
2013-04-22 12:07:00,47.7,35.6,30.68,SE,137,7.0,25.0,63,0.00,,,0.00,meteohub,2013-04-22 16:07:00,
2013-04-22 12:12:00,47.8,35.4,30.69,SSE,154,13.0,25.0,62,0.00,,,0.00,meteohub,2013-04-22 16:12:00,
2013-04-22 12:17:00,47.7,34.9,30.67,ESE,108,10.0,25.0,61,0.00,,,0.00,meteohub,2013-04-22 16:17:00,
2013-04-22 12:22:00,47.5,36.3,30.66,SE,132,9.0,22.0,65,0.00,,,0.00,meteohub,2013-04-22 16:22:00,
2013-04-22 12:27:00,47.5,36.0,30.66,SE,138,17.0,23.0,64,0.00,,,0.00,meteohub,2013-04-22 16:27:00,
2013-04-22 12:32:00,47.3,35.4,30.66,SSE,168,11.0,23.0,63,0.00,,,0.00,meteohub,2013-04-22 16:32:00,
2013-04-22 12:37:00,47.1,35.6,30.66,SSE,160,15.0,23.0,64,0.00,,,0.00,meteohub,2013-04-22 16:37:00,
2013-04-22 12:42:00,47.3,36.9,30.65,ESE,108,7.0,19.0,67,0.00,,,0.00,meteohub,2013-04-22 16:42:00,
2013-04-22 12:47:00,47.1,36.0,30.66,ESE,120,5.0,18.0,65,0.00,,,0.00,meteohub,2013-04-22 16:47:00,
2013-04-22 12:52:00,47.5,35.6,30.66,SE,133,12.0,19.0,63,0.00,,,0.00,meteohub,2013-04-22 16:52:00,
2013-04-22 12:57:00,47.5,35.1,30.65,SE,127,9.0,21.0,62,0.00,,,0.00,meteohub,2013-04-22 16:57:00,
2013-04-22 13:02:00,47.8,36.3,30.65,East,85,9.0,21.0,64,0.00,,,0.00,meteohub,2013-04-22 17:02:00,
2013-04-22 13:07:00,48.2,36.1,30.65,ESE,119,12.0,21.0,63,0.00,,,0.00,meteohub,2013-04-22 17:07:00,
2013-04-22 13:12:00,47.8,36.3,30.65,ESE,123,8.0,20.0,64,0.00,,,0.00,meteohub,2013-04-22 17:12:00,
2013-04-22 13:17:00,47.8,36.7,30.65,SE,133,7.0,20.0,65,0.00,,,0.00,meteohub,2013-04-22 17:17:00,
2013-04-22 13:22:00,48.0,37.2,30.64,SE,127,12.0,20.0,66,0.00,,,0.00,meteohub,2013-04-22 17:22:00,
2013-04-22 13:27:00,47.8,37.0,30.64,SE,124,14.0,18.0,66,0.00,,,0.00,meteohub,2013-04-22 17:27:00,
2013-04-22 13:32:00,48.0,37.2,30.64,SE,133,12.0,18.0,66,0.00,,,0.00,meteohub,2013-04-22 17:32:00,
2013-04-22 13:37:00,48.0,37.6,30.64,East,79,14.0,20.0,67,0.00,,,0.00,meteohub,2013-04-22 17:37:00,
2013-04-22 13:42:00,48.2,37.4,30.63,SE,125,14.0,20.0,66,0.00,,,0.00,meteohub,2013-04-22 17:42:00,
2013-04-22 13:47:00,48.0,37.2,30.63,South,187,10.0,20.0,66,0.00,,,0.00,meteohub,2013-04-22 17:47:00,
2013-04-22 13:52:00,48.4,37.2,30.63,SE,127,13.0,20.0,65,0.00,,,0.00,meteohub,2013-04-22 17:52:00,
2013-04-22 13:57:00,48.2,37.0,30.63,SSE,147,7.0,20.0,65,0.00,,,0.00,meteohub,2013-04-22 17:57:00,
2013-04-22 14:02:00,48.6,36.5,30.63,ENE,68,9.0,25.0,63,0.00,,,0.00,meteohub,2013-04-22 18:02:00,
2013-04-22 14:07:00,48.7,35.1,30.63,East,86,11.0,25.0,59,0.00,,,0.00,meteohub,2013-04-22 18:07:00,
2013-04-22 14:12:00,48.7,35.4,30.62,SE,137,12.0,19.0,60,0.00,,,0.00,meteohub,2013-04-22 18:12:00,
2013-04-22 14:17:00,48.9,35.2,30.62,SE,146,14.0,20.0,59,0.00,,,0.00,meteohub,2013-04-22 18:17:00,
2013-04-22 14:22:00,48.7,35.1,30.61,ESE,119,8.0,20.0,59,0.00,,,0.00,meteohub,2013-04-22 18:22:00,
2013-04-22 14:27:00,49.1,35.4,30.61,ESE,114,12.0,20.0,59,0.00,,,0.00,meteohub,2013-04-22 18:27:00,
2013-04-22 14:32:00,49.3,36.3,30.61,ESE,123,13.0,20.0,61,0.00,,,0.00,meteohub,2013-04-22 18:32:00,
2013-04-22 14:37:00,48.9,34.9,30.61,ENE,62,10.0,20.0,58,0.00,,,0.00,meteohub,2013-04-22 18:37:00,
2013-04-22 14:42:00,49.1,35.8,30.61,SE,144,12.0,20.0,60,0.00,,,0.00,meteohub,2013-04-22 18:42:00,
2013-04-22 14:47:00,48.7,35.1,30.61,SE,134,9.0,21.0,59,0.00,,,0.00,meteohub,2013-04-22 18:47:00,
2013-04-22 14:52:00,48.4,36.7,30.61,East,101,11.0,21.0,64,0.00,,,0.00,meteohub,2013-04-22 18:52:00,
2013-04-22 14:57:00,48.6,35.2,30.62,SE,132,6.0,21.0,60,0.00,,,0.00,meteohub,2013-04-22 18:57:00,
2013-04-22 15:02:00,48.7,36.0,30.61,SE,139,15.0,20.0,61,0.00,,,0.00,meteohub,2013-04-22 19:02:00,
2013-04-22 15:07:00,48.7,36.0,30.61,SSE,153,8.0,21.0,61,0.00,,,0.00,meteohub,2013-04-22 19:07:00,
2013-04-22 15:12:00,48.6,35.2,30.61,SE,124,7.0,21.0,60,0.00,,,0.00,meteohub,2013-04-22 19:12:00,
2013-04-22 15:17:00,48.4,34.7,30.61,SE,133,9.0,21.0,59,0.00,,,0.00,meteohub,2013-04-22 19:17:00,
2013-04-22 15:22:00,48.4,34.3,30.60,ESE,121,11.0,20.0,58,0.00,,,0.00,meteohub,2013-04-22 19:22:00,
2013-04-22 15:27:00,48.4,34.3,30.60,ESE,118,10.0,17.0,58,0.00,,,0.00,meteohub,2013-04-22 19:27:00,
2013-04-22 15:32:00,48.6,35.2,30.60,SSE,159,9.0,19.0,60,0.00,,,0.00,meteohub,2013-04-22 19:32:00,
2013-04-22 15:37:00,48.9,34.0,30.60,SE,136,10.0,19.0,56,0.00,,,0.00,meteohub,2013-04-22 19:37:00,
2013-04-22 15:42:00,48.9,35.6,30.60,ESE,117,11.0,19.0,60,0.00,,,0.00,meteohub,2013-04-22 19:42:00,
2013-04-22 15:47:00,48.7,36.0,30.60,SSE,153,11.0,19.0,61,0.00,,,0.00,meteohub,2013-04-22 19:47:00,
2013-04-22 15:52:00,48.7,36.3,30.60,SE,134,10.0,26.0,62,0.00,,,0.00,meteohub,2013-04-22 19:52:00,
2013-04-22 15:57:00,48.6,36.5,30.59,SE,124,16.0,26.0,63,0.00,,,0.00,meteohub,2013-04-22 19:57:00,
2013-04-22 16:02:00,48.6,36.1,30.59,SSE,158,8.0,26.0,62,0.00,,,0.00,meteohub,2013-04-22 20:02:00,
2013-04-22 16:07:00,48.4,36.7,30.59,SE,135,9.0,23.0,64,0.00,,,0.00,meteohub,2013-04-22 20:07:00,
2013-04-22 16:12:00,48.6,37.4,30.59,SE,135,16.0,23.0,65,0.00,,,0.00,meteohub,2013-04-22 20:12:00,
2013-04-22 16:17:00,48.6,38.1,30.59,SE,131,11.0,22.0,67,0.00,,,0.00,meteohub,2013-04-22 20:17:00,
2013-04-22 16:22:00,48.4,38.3,30.58,SE,126,9.0,21.0,68,0.00,,,0.00,meteohub,2013-04-22 20:22:00,
2013-04-22 16:27:00,48.4,38.7,30.59,SE,133,9.0,21.0,69,0.00,,,0.00,meteohub,2013-04-22 20:27:00,
2013-04-22 16:32:00,48.2,38.1,30.59,ESE,103,12.0,21.0,68,0.00,,,0.00,meteohub,2013-04-22 20:32:00,
2013-04-22 16:37:00,47.8,38.8,30.59,SE,142,11.0,23.0,71,0.00,,,0.00,meteohub,2013-04-22 20:37:00,
2013-04-22 16:42:00,48.2,39.2,30.59,ESE,108,10.0,23.0,71,0.00,,,0.00,meteohub,2013-04-22 20:42:00,
2013-04-22 16:47:00,48.6,39.2,30.59,East,99,13.0,23.0,70,0.00,,,0.00,meteohub,2013-04-22 20:47:00,
2013-04-22 16:52:00,47.8,37.8,30.58,ESE,116,10.0,22.0,68,0.00,,,0.00,meteohub,2013-04-22 20:52:00,
2013-04-22 16:57:00,47.8,38.5,30.58,ESE,119,11.0,20.0,70,0.00,,,0.00,meteohub,2013-04-22 20:57:00,
2013-04-22 17:02:00,48.0,37.9,30.58,ENE,78,7.0,20.0,68,0.00,,,0.00,meteohub,2013-04-22 21:02:00,
2013-04-22 17:07:00,48.4,37.9,30.58,SSE,158,11.0,20.0,67,0.00,,,0.00,meteohub,2013-04-22 21:07:00,
2013-04-22 17:12:00,48.2,38.8,30.58,ESE,108,8.0,20.0,70,0.00,,,0.00,meteohub,2013-04-22 21:12:00,
2013-04-22 17:17:00,47.8,38.8,30.58,ESE,121,12.0,19.0,71,0.00,,,0.00,meteohub,2013-04-22 21:17:00,
2013-04-22 17:22:00,47.5,39.2,30.58,East,81,13.0,18.0,73,0.00,,,0.00,meteohub,2013-04-22 21:22:00,
2013-04-22 17:27:00,47.1,38.8,30.58,SE,137,9.0,22.0,73,0.00,,,0.00,meteohub,2013-04-22 21:27:00,
2013-04-22 17:32:00,46.9,38.7,30.58,SE,140,10.0,22.0,73,0.00,,,0.00,meteohub,2013-04-22 21:32:00,
2013-04-22 17:37:00,47.1,39.2,30.58,SSE,147,4.0,20.0,74,0.00,,,0.00,meteohub,2013-04-22 21:37:00,
2013-04-22 17:42:00,47.5,39.9,30.57,SSE,152,5.0,19.0,75,0.00,,,0.00,meteohub,2013-04-22 21:42:00,
2013-04-22 17:47:00,47.1,39.6,30.58,ESE,116,17.0,18.0,75,0.00,,,0.00,meteohub,2013-04-22 21:47:00,
2013-04-22 17:52:00,46.8,39.6,30.58,SSE,152,13.0,19.0,76,0.00,,,0.00,meteohub,2013-04-22 21:52:00,
2013-04-22 17:57:00,46.6,39.0,30.58,SE,125,13.0,19.0,75,0.00,,,0.00,meteohub,2013-04-22 21:57:00,
2013-04-22 18:02:00,46.6,39.7,30.58,SSE,147,9.0,19.0,77,0.00,,,0.00,meteohub,2013-04-22 22:02:00,
2013-04-22 18:07:00,46.2,39.4,30.58,SE,135,13.0,23.0,77,0.00,,,0.00,meteohub,2013-04-22 22:07:00,
2013-04-22 18:12:00,46.2,39.4,30.58,South,181,5.0,23.0,77,0.00,,,0.00,meteohub,2013-04-22 22:12:00,
2013-04-22 18:17:00,46.2,39.7,30.58,SE,132,15.0,23.0,78,0.00,,,0.00,meteohub,2013-04-22 22:17:00,
2013-04-22 18:22:00,46.0,39.2,30.58,East,100,9.0,18.0,77,0.00,,,0.00,meteohub,2013-04-22 22:22:00,
2013-04-22 18:27:00,45.9,39.7,30.58,East,80,10.0,19.0,79,0.00,,,0.00,meteohub,2013-04-22 22:27:00,
2013-04-22 18:32:00,45.7,39.2,30.57,ESE,114,10.0,19.0,78,0.00,,,0.00,meteohub,2013-04-22 22:32:00,
2013-04-22 18:37:00,45.5,39.0,30.57,ESE,114,13.0,19.0,78,0.00,,,0.00,meteohub,2013-04-22 22:37:00,
2013-04-22 18:42:00,45.5,39.7,30.57,East,94,7.0,18.0,80,0.00,,,0.00,meteohub,2013-04-22 22:42:00,
2013-04-22 18:47:00,45.5,39.0,30.57,SE,135,8.0,18.0,78,0.00,,,0.00,meteohub,2013-04-22 22:47:00,
2013-04-22 18:52:00,45.3,38.8,30.57,SSE,159,7.0,18.0,78,0.00,,,0.00,meteohub,2013-04-22 22:52:00,
2013-04-22 18:57:00,45.1,38.7,30.57,SE,142,7.0,18.0,78,0.00,,,0.00,meteohub,2013-04-22 22:57:00,
2013-04-22 19:02:00,45.1,38.3,30.57,SE,134,10.0,16.0,77,0.00,,,0.00,meteohub,2013-04-22 23:02:00,
2013-04-22 19:07:00,45.1,38.3,30.57,ENE,62,11.0,21.0,77,0.00,,,0.00,meteohub,2013-04-22 23:07:00,
2013-04-22 19:12:00,45.0,37.9,30.57,SE,146,2.0,21.0,76,0.00,,,0.00,meteohub,2013-04-22 23:12:00,
2013-04-22 19:17:00,45.0,37.9,30.56,East,91,8.0,20.0,76,0.00,,,0.00,meteohub,2013-04-22 23:17:00,
2013-04-22 19:22:00,45.0,37.9,30.56,ENE,64,4.0,18.0,76,0.00,,,0.00,meteohub,2013-04-22 23:22:00,
2013-04-22 19:27:00,44.8,37.9,30.56,SE,138,5.0,24.0,77,0.00,,,0.00,meteohub,2013-04-22 23:27:00,
2013-04-22 19:32:00,44.8,37.8,30.56,SE,142,8.0,24.0,76,0.00,,,0.00,meteohub,2013-04-22 23:32:00,
2013-04-22 19:37:00,44.8,38.3,30.56,ESE,118,9.0,24.0,78,0.00,,,0.00,meteohub,2013-04-22 23:37:00,
2013-04-22 19:42:00,45.0,38.5,30.56,SE,134,7.0,18.0,78,0.00,,,0.00,meteohub,2013-04-22 23:42:00,
2013-04-22 19:47:00,44.8,38.7,30.56,SE,128,17.0,19.0,79,0.00,,,0.00,meteohub,2013-04-22 23:47:00,
2013-04-22 19:52:00,44.8,37.9,30.56,ESE,103,16.0,19.0,77,0.00,,,0.00,meteohub,2013-04-22 23:52:00,
2013-04-22 19:57:00,44.4,37.0,30.56,East,84,5.0,19.0,75,0.00,,,0.00,meteohub,2013-04-22 23:57:00,
2013-04-22 20:02:00,44.4,37.4,30.56,ESE,120,8.0,19.0,76,0.00,,,0.00,meteohub,2013-04-23 00:02:00,
2013-04-22 20:07:00,44.2,36.5,30.56,ESE,117,10.0,19.0,74,0.00,,,0.00,meteohub,2013-04-23 00:07:00,
2013-04-22 20:12:00,44.2,36.9,30.56,SE,124,15.0,19.0,75,0.00,,,0.00,meteohub,2013-04-23 00:12:00,
2013-04-22 20:17:00,44.2,37.2,30.56,NE,45,4.0,19.0,76,0.00,,,0.00,meteohub,2013-04-23 00:17:00,
2013-04-22 20:22:00,44.2,37.2,30.56,SE,133,7.0,15.0,76,0.00,,,0.00,meteohub,2013-04-23 00:22:00,
2013-04-22 20:27:00,44.1,37.4,30.56,SSE,147,9.0,15.0,77,0.00,,,0.00,meteohub,2013-04-23 00:27:00,
2013-04-22 20:32:00,44.1,36.7,30.56,ENE,62,8.0,19.0,75,0.00,,,0.00,meteohub,2013-04-23 00:32:00,
2013-04-22 20:37:00,44.1,37.4,30.56,SSE,156,11.0,19.0,77,0.00,,,0.00,meteohub,2013-04-23 00:37:00,
2013-04-22 20:42:00,44.1,36.7,30.56,SE,129,7.0,17.0,75,0.00,,,0.00,meteohub,2013-04-23 00:42:00,
2013-04-22 20:47:00,44.1,36.7,30.56,SE,137,6.0,18.0,75,0.00,,,0.00,meteohub,2013-04-23 00:47:00,
2013-04-22 20:52:00,44.2,36.9,30.56,SE,131,14.0,18.0,75,0.00,,,0.00,meteohub,2013-04-23 00:52:00,
2013-04-22 20:57:00,44.2,36.9,30.56,East,81,2.0,18.0,75,0.00,,,0.00,meteohub,2013-04-23 00:57:00,
2013-04-22 21:02:00,44.1,37.4,30.56,SE,135,9.0,18.0,77,0.00,,,0.00,meteohub,2013-04-23 01:02:00,
2013-04-22 21:07:00,44.1,37.0,30.56,ESE,123,6.0,18.0,76,0.00,,,0.00,meteohub,2013-04-23 01:07:00,
2013-04-22 21:12:00,44.2,37.6,30.56,SE,144,4.0,17.0,77,0.00,,,0.00,meteohub,2013-04-23 01:12:00,
2013-04-22 21:17:00,44.1,36.7,30.56,ESE,120,9.0,16.0,75,0.00,,,0.00,meteohub,2013-04-23 01:17:00,
2013-04-22 21:22:00,44.1,37.0,30.55,ESE,110,5.0,17.0,76,0.00,,,0.00,meteohub,2013-04-23 01:22:00,
2013-04-22 21:27:00,44.1,37.4,30.56,SSE,149,5.0,18.0,77,0.00,,,0.00,meteohub,2013-04-23 01:27:00,
2013-04-22 21:32:00,44.1,37.4,30.55,ESE,114,8.0,19.0,77,0.00,,,0.00,meteohub,2013-04-23 01:32:00,
2013-04-22 21:37:00,44.1,37.6,30.55,East,83,5.0,19.0,78,0.00,,,0.00,meteohub,2013-04-23 01:37:00,
2013-04-22 21:42:00,43.9,36.9,30.55,South,190,4.0,16.0,76,0.00,,,0.00,meteohub,2013-04-23 01:42:00,
2013-04-22 21:47:00,44.1,37.4,30.55,ESE,107,7.0,16.0,77,0.00,,,0.00,meteohub,2013-04-23 01:47:00,
2013-04-22 21:52:00,44.1,37.4,30.55,East,87,5.0,16.0,77,0.00,,,0.00,meteohub,2013-04-23 01:52:00,
2013-04-22 21:57:00,43.7,36.3,30.55,ESE,102,4.0,20.0,75,0.00,,,0.00,meteohub,2013-04-23 01:57:00,
2013-04-22 22:02:00,43.7,36.7,30.55,SSE,149,10.0,20.0,76,0.00,,,0.00,meteohub,2013-04-23 02:02:00,
2013-04-22 22:07:00,43.7,36.3,30.55,ESE,116,7.0,20.0,75,0.00,,,0.00,meteohub,2013-04-23 02:07:00,
2013-04-22 22:12:00,43.5,36.1,30.55,ENE,70,7.0,22.0,75,0.00,,,0.00,meteohub,2013-04-23 02:12:00,
2013-04-22 22:17:00,43.3,35.6,30.55,SE,127,10.0,22.0,74,0.00,,,0.00,meteohub,2013-04-23 02:17:00,
2013-04-22 22:22:00,43.3,36.0,30.55,SSE,152,6.0,22.0,75,0.00,,,0.00,meteohub,2013-04-23 02:22:00,
2013-04-22 22:27:00,43.2,35.4,30.55,NE,39,8.0,17.0,74,0.00,,,0.00,meteohub,2013-04-23 02:27:00,
2013-04-22 22:32:00,43.2,35.4,30.54,ESE,120,12.0,17.0,74,0.00,,,0.00,meteohub,2013-04-23 02:32:00,
2013-04-22 22:37:00,43.0,35.2,30.55,ESE,108,7.0,17.0,74,0.00,,,0.00,meteohub,2013-04-23 02:37:00,
2013-04-22 22:42:00,43.0,35.2,30.54,ESE,117,10.0,17.0,74,0.00,,,0.00,meteohub,2013-04-23 02:42:00,
2013-04-22 22:47:00,43.0,35.6,30.54,ENE,68,2.0,18.0,75,0.00,,,0.00,meteohub,2013-04-23 02:47:00,
2013-04-22 22:52:00,43.0,35.2,30.55,South,179,4.0,18.0,74,0.00,,,0.00,meteohub,2013-04-23 02:52:00,
2013-04-22 22:57:00,42.8,35.1,30.54,NE,34,4.0,18.0,74,0.00,,,0.00,meteohub,2013-04-23 02:57:00,
2013-04-22 23:02:00,42.6,35.2,30.54,ENE,68,7.0,10.0,75,0.00,,,0.00,meteohub,2013-04-23 03:02:00,
2013-04-22 23:07:00,42.6,34.9,30.54,South,173,4.0,11.0,74,0.00,,,0.00,meteohub,2013-04-23 03:07:00,
2013-04-22 23:12:00,42.4,34.7,30.53,ESE,109,5.0,12.0,74,0.00,,,0.00,meteohub,2013-04-23 03:12:00,
2013-04-22 23:17:00,42.4,35.1,30.53,ESE,122,5.0,12.0,75,0.00,,,0.00,meteohub,2013-04-23 03:17:00,
2013-04-22 23:22:00,42.4,35.1,30.53,ENE,73,5.0,16.0,75,0.00,,,0.00,meteohub,2013-04-23 03:22:00,
2013-04-22 23:27:00,42.4,35.1,30.53,NNW,344,4.0,16.0,75,0.00,,,0.00,meteohub,2013-04-23 03:27:00,
2013-04-22 23:32:00,42.4,35.1,30.53,East,85,5.0,13.0,75,0.00,,,0.00,meteohub,2013-04-23 03:32:00,
2013-04-22 23:37:00,42.4,35.1,30.53,East,96,3.0,14.0,75,0.00,,,0.00,meteohub,2013-04-23 03:37:00,
2013-04-22 23:42:00,42.4,35.1,30.53,SE,145,3.0,14.0,75,0.00,,,0.00,meteohub,2013-04-23 03:42:00,
2013-04-22 23:47:00,42.3,34.9,30.53,SE,127,2.0,14.0,75,0.00,,,0.00,meteohub,2013-04-23 03:47:00,
2013-04-22 23:52:00,42.3,34.9,30.53,East,92,2.0,12.0,75,0.00,,,0.00,meteohub,2013-04-23 03:52:00,
2013-04-22 23:57:00,42.3,34.9,30.52,ENE,62,2.0,11.0,75,0.00,,,0.00,meteohub,2013-04-23 03:57:00,